This is the latest recevied weather packets stored in our database for station/object K4OAM-13. If no packets are shown the sender has not sent any weather packets the latest 10 day(s).
| Time | Temp. | Humidity | Pressure | Rain* | Wind** | Luminosity | Snow |
|---|---|---|---|---|---|---|---|
| 1777896821 | 8.33° C | 69% | 1008.4 hPa | - | - | - | - |
| 1777895953 | 7.78° C | 70% | 1008.2 hPa | - | - | - | - |
| 1777894421 | 7.22° C | 72% | 1008.4 hPa | - | - | - | - |
| 1777892921 | 7.22° C | 71% | 1008.7 hPa | - | - | - | - |
| 1777892021 | 7.22° C | 70% | 1008.7 hPa | - | - | - | - |
| 1777891121 | 7.22° C | 76% | 1008.9 hPa | - | - | - | - |
| 1777888721 | 7.78° C | 69% | 1008.7 hPa | - | - | - | - |
| 1777887821 | 7.22° C | 70% | 1009 hPa | - | - | - | - |
| 1777885121 | 7.78° C | 65% | 1009.2 hPa | - | - | - | - |
| 1777884821 | 7.78° C | 66% | 1009.3 hPa | - | - | - | - |
| 1777883621 | 7.22° C | 65% | 1009.5 hPa | - | - | - | - |
| 1777881521 | 7.22° C | 66% | 1009.6 hPa | - | - | - | - |
| 1777880337 | 7.22° C | 66% | 1009.9 hPa | - | - | - | - |
| 1777879121 | 7.78° C | 67% | 1010.1 hPa | - | - | - | - |
| 1777877936 | 7.22° C | 67% | 1010.1 hPa | - | - | - | - |
| 1777875537 | 7.22° C | 66% | 1011 hPa | - | - | - | - |
| 1777875221 | 7.22° C | 66% | 1010.9 hPa | - | - | - | - |
| 1777874921 | 7.22° C | 66% | 1011.2 hPa | - | - | - | - |
| 1777872820 | 7.22° C | 66% | 1011.4 hPa | - | - | - | - |
| 1777870720 | 7.22° C | 66% | 1011.4 hPa | - | - | - | - |
| 1777870437 | 6.67° C | 66% | 1011.2 hPa | - | - | - | - |
| 1777868621 | 7.22° C | 65% | 1011.1 hPa | - | - | - | - |
| 1777867121 | 7.22° C | 69% | 1011.1 hPa | - | - | - | - |
| 1777866223 | 7.22° C | 70% | 1011.1 hPa | - | - | - | - |
| 1777865620 | 7.22° C | 72% | 1010.7 hPa | - | - | - | - |
* Rain since midnight (hover to see other rain measurements)
** Current wind speed in m/s (hover to see current wind gust speed)